www.pogodaiklimat.ru

Погода и климат >> Архив погоды >> Мали >> Kita


ПОГОДА в Kita

  • Прогноз погоды в Kita
  • Монитор погоды в Kita
  • Климат города

АРХИВ ПОГОДЫ в Kita

Время (UTC), дата Ветер
(напр.,м/с)
 
Видим.   Явления Облачность Т
(С)
Тd
(С)
f
(%)
Тe
(С)
Тes
(С)
Комфортность P
(гПа)
Po
(гПа)
Тmin
(С)
Tmax
(С)
R
(мм)
R24
(мм)
S
(см)
18 11.06 Ю 2 10 км 6/4 900 м
[Cu med, cong Ac lent Ci sp]
+36.5 +19.9 38 +42 +43 опасность
перегрева
1008.0 971.7 +40.4
21 11.06 Ю 2 10 км 6/3 900 м
[Sc Ac lent Ci sp]
+34.0 +20.9 46 +41 +41 опасность
перегрева
1009.9 973.7
00 12.06 штиль 0 10 км 6/3 900 м
[Sc Ac lent Ci sp]
+32.8 +22.9 56 +43 +43 опасность
перегрева
1011.2 975.0
03 12.06 Ю 3 10 км 8/4 900 м
[Sc Ac lent]
+32.0 +20.5 51 +39 +39 очень
душно
1010.5 974.4
06 12.06 Ю 2 10 км 9/5 900 м
[Sc Ac As]
+30.0 +21.2 59 +38 +38 очень
душно
1011.0 974.6 +29.7
09 12.06 ЮВ 2 10 км 8/3 900 м
[Sc Ac As Ci sp]
+31.4 +19.6 50 +37 +41 очень
душно
1012.6 976.1
12 12.06 ЮВ 2 10 км 5/1 900 м
[Sc Ac lent Ci sp]
+35.9 +18.9 37 +41 +55 опасность
перегрева
1012.5 976.2
15 12.06 ЮВ 2 10 км 6/5 900 м
[Cb calv Ac lent Ci sp]
+39.0 +19.3 32 +44 +50 опасность
перегрева
1009.7 973.8
18 12.06 штиль 0 10 км гроза без осадков {дождь} 5/4 900 м
[Cb cap Ac lent Ci sp]
+31.6 +25.3 69 +46 +46 опасность
перегрева
1009.4 972.8 +39.5 3
21 12.06 штиль 0 10 км {гроза} 4/3 900 м
[Sc Ac lent Ci sp]
+33.5 +22.0 51 +42 +42 опасность
перегрева
1011.7 975.2
00 13.06 штиль 0 10 км 4/3 900 м
[Sc Ac lent Ci sp]
+31.1 +23.7 65 +42 +42 опасность
перегрева
1012.8 976.4
03 13.06 штиль 0 10 км 3/1 900 м
[Sc Ci sp]
+29.5 +25.0 77 +43 +43 опасность
перегрева
1011.9 975.6
06 13.06 штиль 0 10 км 1/0
[Ci sp]
+28.5 +24.6 79 +40 +40 очень
душно
1012.1 975.3 +28.0 3
09 13.06 штиль 0 10 км ясно +33.0 +23.0 56 +43 +54 опасность
перегрева
1013.3 976.9
12 13.06 штиль 0 10 км 8/6 900 м
[Cu med, cong Ac lent]
+37.0 +21.8 42 +45 +52 опасность
перегрева
1012.4 976.1
15 13.06 С 2 10 км гроза без осадков {дождь} 8/5 900 м
[Cb cap Ac lent Ci sp]
+31.0 +23.9 66 +43 +48 опасность
перегрева
1010.8 974.1
18 13.06 С 2 10 км {гроза, дождь} 8/4 900 м
[Sc Ac lent Ci sp]
+32.0 +22.7 58 +42 +42 опасность
перегрева
1009.7 973.1 +37.0 0.0
21 13.06 ЮЗ 2 10 км 8/4 900 м
[Sc Ac lent Ci sp]
+28.2 +23.0 73 +38 +38 очень
душно
1011.5 974.8
00 14.06 штиль 0 10 км 6/3 900 м
[Sc Ac lent Ci sp]
+28.5 +21.9 67 +37 +37 очень
душно
1012.2 975.7
03 14.06 штиль 0 10 км гроза, ливневой дождь 9/6 900 м
[Cb cap Ac As]
+24.6 +23.0 91 +33 +33 очень
душно
1015.0 977.8
06 14.06 ЮЗ 2 10 км слабый дождь {гроза} 9/5 900 м
[Sc Ac As]
+24.3 +23.1 93 +32 +32 очень
душно
1014.1 977.0 +23.8 9
09 14.06 ЮЗ 2 10 км {дождь} 9/3 900 м
[Sc Ac As]
+25.6 +23.1 86 +34 +36 очень
душно
1015.7 978.4
12 14.06 штиль 0 10 км {дождь} 6/3 900 м
[Sc Ac lent Ci sp]
+29.6 +24.4 74 +42 +57 опасность
перегрева
1014.3 977.3 0.5
15 14.06 З 2 10 км 5/1 900 м
[Sc Ac lent Ci sp]
+32.2 +23.4 60 +43 +53 опасность
перегрева
1012.2 975.2
18 14.06 штиль 0 10 км 5/1 900 м
[Sc Ac lent Ci sp]
+32.0 +23.0 59 +42 +43 опасность
перегрева
1011.7 974.7 +33.2 0.5
21 14.06 штиль 0 10 км 3/1 900 м
[Sc Ac lent Ci sp]
+29.5 +23.8 71 +40 +40 очень
душно
1013.3 976.2
00 15.06 штиль 0 10 км 3/1 900 м
[Sc Ac lent Ci sp]
+29.0 +23.1 71 +39 +39 очень
душно
1013.3 976.4
03 15.06 ЮЗ 2 10 км 3/0
[Ci sp]
+27.0 +24.1 84 +37 +37 очень
душно
1012.3 975.5
06 15.06 штиль 0 10 км 3/0
[Ac lent Ci sp]
+26.5 +23.6 84 +36 +36 очень
душно
1012.3 975.4 +26.1 0.5
09 15.06 ЮЗ 2 10 км 4/0
[Ac lent Ci sp]
+29.0 +24.0 74 +40 +46 очень
душно
1014.0 977.0
12 15.06 ЮЗ 2 10 км 6/3 900 м
[Sc Ac lent Ci sp]
+33.0 +21.7 52 +41 +53 опасность
перегрева
1013.4 976.7
15 15.06 штиль 0 10 км 5/3 900 м
[Sc Ac lent Ci sp]
+35.5 +22.2 46 +44 +56 опасность
перегрева
1011.1 974.5
18 15.06 ЮЗ 2 10 км 4/0
[Ci sp]
+36.0 +21.6 43 +44 +45 опасность
перегрева
1009.8 973.3 +36.4
21 15.06 штиль 0 10 км 4/0
[Ci sp]
+33.0 +22.2 53 +42 +42 опасность
перегрева
1011.0 974.4
00 16.06 штиль 0 10 км 4/0
[Ci sp]
+30.5 +23.8 67 +42 +42 опасность
перегрева
1012.4 975.8
03 16.06 штиль 0 10 км 4/0
[Ci sp]
+29.0 +22.5 68 +38 +38 очень
душно
1011.0 974.5
06 16.06 штиль 0 10 км 5/0
[Ac lent Ci sp]
+27.7 +22.8 75 +37 +37 очень
душно
1011.2 974.7 +27.2
09 16.06 штиль 0 10 км 5/0
[Ci sp]
+31.0 +23.3 64 +42 +52 опасность
перегрева
1012.9 976.3
12 16.06 ЮЗ 2 10 км 5/1 900 м
[Sc Ci sp]
+36.5 +22.2 44 +45 +62 опасность
перегрева
1011.5 975.2
15 16.06 штиль 0 10 км 5/1 900 м
[Sc Ci sp]
+39.6 +16.0 25 +41 +58 опасность
перегрева
1008.7 972.5
18 16.06 штиль 0 10 км ясно +40.5 +17.2 26 +43 +45 опасность
перегрева
1007.0 970.9 +40.5
21 16.06 ЮЗ 2 10 км ясно +35.0 +20.3 42 +41 +41 опасность
перегрева
1008.9 972.6
00 17.06 штиль 0 10 км ясно +31.7 +20.7 52 +39 +39 очень
душно
1010.6 974.4
03 17.06 ЮЗ 2 10 км 4/0
[Ci sp]
+31.3 +19.6 50 +37 +37 очень
душно
1008.8 972.7
06 17.06 штиль 0 10 км 4/0
[Ci sp]
+28.5 +21.8 67 +37 +37 очень
душно
1009.6 973.6 +28.5
09 17.06 ЮЗ 2 10 км 8/0
[Ac lent Ci sp]
+31.5 +22.1 57 +40 +45 очень
душно
1012.4 976.0
12 17.06 штиль 0 10 км 8/0
[Cs]
+34.0 +20.9 46 +41 +65 опасность
перегрева
1011.6 975.1
15 17.06 ЮЗ 2 10 км 8/0
[Ci sp]
+37.0 +20.2 38 +43 +55 опасность
перегрева
1009.9 973.8
18 17.06 Ю 2 10 км 8/0
[Ac lent Ci sp]
+36.8 +20.7 39 +43 +44 опасность
перегрева
1010.5 974.1 +37.2
21 17.06 ЮЗ 2 10 км 8/4 900 м
[Sc Ac As]
+31.5 +23.7 63 +43 +43 опасность
перегрева
1012.7 976.1
00 18.06 штиль 0 10 км 8/4 900 м
[Sc Ac As]
+31.5 +22.1 57 +40 +40 очень
душно
1013.3 976.8
03 18.06 Ю 2 10 км 8/4 900 м
[Sc Ac As]
+29.8 +19.6 54 +36 +36 очень
душно
1012.0 975.6
06 18.06 штиль 0 10 км 8/4 900 м
[Sc Ac As]
+28.5 +21.6 66 +36 +36 очень
душно
1012.5 976.0 +27.8
09 18.06 ЮЗ 2 10 км 9/4 900 м
[Sc Ac As]
+29.2 +22.4 67 +38 +40 очень
душно
1013.5 976.7
12 18.06 ЮЗ 2 10 км 8/3 900 м
[Sc Ci sp]
+34.5 +22.3 49 +43 +56 опасность
перегрева
1012.8 976.4
15 18.06 З 2 10 км 3/0
[Ci sp]
+37.5 +21.8 40 +45 +59 опасность
перегрева
1010.9 974.6

 

Местоположение метеостанции Kita (Мали): широта 13.07 долгота -9.47 высота над уровнем моря 334 м.

В архиве по умолчанию представлена погода в Kita за последнюю неделю. Архивные данные за месяц целиком и за предыдущие месяцы, начиная с января 2011 года, Вы можете получить, выбрав интересующий диапазон дат из раскрывающегося списка и нажав кнопку "Ввод!".


*Определитесь, кто Вы:
робот инопланетянин человек

Внимание! Время в таблицах - всемирное. Для получения местного времени необходимо прибавить поправку, которая в Kita равна 0 ч.

Смотрите также архив погоды в соседних городах и на ближайших метеорологических станциях:

Погода в Bamako (Мали) (175 км)
Погода в Kenieba (Мали) (192 км)
Погода в Nioro Du Sahel (Мали) (241 км)
Погода в Yelimane (Мали) (257 км)
Погода в Kayes (Мали) (260 км)
Погода в Bougouni (Мали) (282 км)
Погода в Kedougou (Сенегал) (302 км)
Погода в Nara (Мали) (332 км)
Погода в Segou (Мали) (361 км)
Погода в Aioun el Atrouss (Мавритания) (404 км)

Пояснения к столбцам:

Ветер - указаны скорость ветра в м/с - средняя за 10 мин, порывы в срок и между сроками (в фигурных скобках) и направление, откуда дует ветер: С - северный, СВ - северо-восточный, В - восточный, ЮВ - юго-восточный, Ю - южный, ЮЗ - юго-западный, З - западный, СЗ - северо-западный.
Видимость - горизонтальная дальность видимости в метрах или километрах. При видимости от 1 до 10 км при отсутствии осадков обычно наблюдается дымка, при ухудшении видимости до 1 км и менее - туман. В сухую погоду видимость может ухудшаться дымом, пылью или мглою.
Явления - указаны атмосферные явления, наблюдавшиеся в срок или в последний час перед сроком; фигурными скобками обозначены явления, наблюдавшиеся между сроками (за 1-3 часа до срока); квадратными скобками обозначены град или гололедные отложения с указанием их диаметра в мм.
Облачность - указаны через наклонную черту общая и нижняя облачность в баллах и высота нижней границы облаков в метрах; квадратными скобками обозначены формы облаков: Ci - перистые, Cs - перисто-слоистые, Cc - перисто-кучевые, Ac - высококучевые, As - высокослоистые, Sc - слоисто-кучевые, Ns - слоисто-дождевые, Cu - кучевые, Cb - кучево-дождевые. Подробнее классификацию облаков см. в Атласе облаков (PDF).
T - Температура воздуха - температура, измеренная на высоте 2 м над землей.
Td - Температура точки росы - температура, при понижении до которой содержащийся в воздухе водяной пар достигнет насыщения.
f - Относительная влажность воздуха - влажноcть воздуха, измеренная на высоте 2 м над землей.
Te - Эффективная температура - температура, которую ощущает одетый по сезону человек в тени. Характеристика душности погоды. При расчете учитывается влияние влажности воздуха и скорости ветра на теплоощущения человека.
Tes - Эффективная температура на солнце - температура, которую ощущает человек, с поправкой на солнечный нагрев. Характеристика знойности погоды. Зависит от высоты солнца над горизонтом, облачности и скорости ветра. Ночью, в пасмурную погоду, а также при ветре 12 м/с и более поправка равна нулю.
P - Атмосферное давление - приведенное к уровню моря атмосферное давление.
Po - Атмосферное давление - измеренное на уровне метеостанции атмосферное давление.
Tmin - Минимальная температура - минимум температуры воздуха на высоте 2 м над землей.
Tmax - Максимальная температура - максимум температуры воздуха на высоте 2 м над землей.
R - Количество осадков - Количество выпавших осадков за период времени, мм. При наведении курсора мыши на число - период времени, за который выпало указанное количество осадков.
R24 - Количество осадков - Количество выпавших осадков за 24 часа, мм.
S - Снежный покров - Высота снежного покрова, см. При наведении курсора мыши на число - состояние снежного покрова и степень покрытия местности в баллах.